Year,Month,Day,Hour,Minute,Value (Times are PST for temperature in C)
2006,08,08,00,00,16.50
2006,08,08,00,01,16.40
2006,08,08,00,02,16.40
2006,08,08,00,03,16.40
2006,08,08,00,04,16.40
2006,08,08,00,05,16.40
2006,08,08,00,06,16.40
2006,08,08,00,07,16.30
2006,08,08,00,08,16.30
2006,08,08,00,09,16.30
2006,08,08,00,10,16.30
2006,08,08,00,11,16.30
2006,08,08,00,12,16.30
2006,08,08,01,02,15.00
2006,08,08,01,03,15.00
2006,08,08,01,04,15.00
2006,08,08,01,05,15.00
2006,08,08,01,06,15.00
2006,08,08,01,07,15.00
2006,08,08,01,08,15.00
2006,08,08,01,09,15.00
2006,08,08,01,10,15.00
2006,08,08,01,11,15.10
2006,08,08,01,12,15.10
2006,08,08,01,13,15.20
2006,08,08,01,14,15.20
2006,08,08,01,15,15.30
2006,08,08,01,16,15.30
2006,08,08,01,17,15.30
2006,08,08,01,18,15.40
2006,08,08,01,19,15.40
2006,08,08,01,20,15.40
2006,08,08,01,21,15.40
2006,08,08,01,22,15.50
2006,08,08,01,23,15.50
2006,08,08,01,24,15.50
2006,08,08,01,25,15.50
2006,08,08,01,26,15.50
2006,08,08,01,27,15.50
2006,08,08,01,28,15.40
2006,08,08,01,29,15.40
2006,08,08,01,30,15.40
2006,08,08,01,31,15.40
2006,08,08,01,32,15.40
2006,08,08,01,33,15.40
2006,08,08,01,34,15.40
2006,08,08,01,35,15.40
2006,08,08,01,36,15.40
2006,08,08,01,37,15.40
2006,08,08,01,38,15.40
2006,08,08,01,39,15.40
2006,08,08,01,40,15.50
2006,08,08,01,41,15.50
2006,08,08,01,42,15.60
2006,08,08,01,43,15.60
2006,08,08,01,44,15.70
2006,08,08,01,45,15.70
2006,08,08,01,46,15.70
2006,08,08,01,47,15.80
2006,08,08,01,48,15.80
2006,08,08,01,49,15.80
2006,08,08,01,50,15.80
2006,08,08,01,51,15.80
2006,08,08,01,52,15.80
2006,08,08,01,53,15.70
2006,08,08,01,54,15.70
2006,08,08,01,55,15.60
2006,08,08,01,56,15.60
2006,08,08,01,57,15.60
2006,08,08,01,58,15.50
2006,08,08,01,59,15.50
2006,08,08,02,00,15.50
2006,08,08,02,01,15.40
2006,08,08,02,02,15.40
2006,08,08,02,03,15.30
2006,08,08,02,04,15.30
2006,08,08,02,05,15.20
2006,08,08,02,06,15.20
2006,08,08,02,07,15.10
2006,08,08,02,08,15.10
2006,08,08,02,09,15.00
2006,08,08,02,10,15.00
2006,08,08,02,11,14.90
2006,08,08,02,12,14.80
2006,08,08,02,13,14.80
2006,08,08,02,14,14.80
2006,08,08,02,15,14.80
2006,08,08,02,16,14.70
2006,08,08,02,17,14.70
2006,08,08,02,18,14.70
2006,08,08,02,19,14.60
2006,08,08,02,20,14.60
2006,08,08,02,21,14.50
2006,08,08,02,22,14.50
2006,08,08,02,23,14.40
2006,08,08,02,24,14.40
2006,08,08,02,25,14.40
2006,08,08,02,26,14.30
2006,08,08,02,27,14.30
2006,08,08,02,28,14.20
2006,08,08,02,29,14.20
2006,08,08,02,30,14.20
2006,08,08,02,31,14.20
2006,08,08,02,32,14.20
2006,08,08,02,33,14.20
2006,08,08,02,34,14.10
2006,08,08,02,35,14.10
2006,08,08,02,36,14.10
2006,08,08,02,37,14.10
2006,08,08,02,38,14.10
2006,08,08,02,39,14.10
2006,08,08,02,40,14.00
2006,08,08,02,41,14.00
2006,08,08,02,42,14.00
2006,08,08,02,43,14.10
2006,08,08,02,44,14.10
2006,08,08,02,45,14.10
2006,08,08,02,46,14.10
2006,08,08,02,47,14.10
2006,08,08,02,48,14.10
2006,08,08,02,49,14.10
2006,08,08,02,50,14.10
2006,08,08,02,51,14.10
2006,08,08,02,52,14.10
2006,08,08,02,53,14.10
2006,08,08,02,54,14.10
2006,08,08,02,55,14.10
2006,08,08,02,56,14.10
2006,08,08,02,57,14.10
2006,08,08,02,58,14.10
2006,08,08,02,59,14.10
2006,08,08,03,00,14.10
2006,08,08,03,01,14.10
2006,08,08,03,02,14.10
2006,08,08,03,03,14.10
2006,08,08,03,04,14.10
2006,08,08,03,05,14.10
2006,08,08,03,06,14.10
2006,08,08,03,07,14.10
2006,08,08,03,08,14.10
2006,08,08,03,09,14.10
2006,08,08,03,10,14.10
2006,08,08,03,11,14.00
2006,08,08,03,12,14.00
2006,08,08,03,13,14.00
2006,08,08,03,14,14.00
2006,08,08,03,15,14.00
2006,08,08,03,16,14.00
2006,08,08,03,17,14.00
2006,08,08,03,18,14.00
2006,08,08,03,19,14.00
2006,08,08,03,20,14.00
2006,08,08,03,21,14.00
2006,08,08,03,22,14.00
2006,08,08,03,23,14.00
2006,08,08,03,24,14.00
2006,08,08,03,25,14.00
2006,08,08,03,26,14.00
2006,08,08,03,27,14.00
2006,08,08,03,28,14.00
2006,08,08,03,29,14.00
2006,08,08,03,30,14.00
2006,08,08,03,31,14.00
2006,08,08,03,32,14.00
2006,08,08,03,33,14.00
2006,08,08,03,34,14.00
2006,08,08,03,35,14.00
2006,08,08,03,36,14.00
2006,08,08,03,37,14.10
2006,08,08,03,38,14.10
2006,08,08,03,39,14.20
2006,08,08,03,40,14.20
2006,08,08,03,41,14.20
2006,08,08,03,42,14.20
2006,08,08,03,43,14.20
2006,08,08,03,44,14.20
2006,08,08,03,45,14.20
2006,08,08,03,46,14.20
2006,08,08,03,47,14.20
2006,08,08,03,48,14.20
2006,08,08,03,49,14.20
2006,08,08,03,50,14.20
2006,08,08,03,51,14.20
2006,08,08,03,52,14.20
2006,08,08,03,53,14.20
2006,08,08,03,54,14.20
2006,08,08,03,55,14.20
2006,08,08,03,56,14.30
2006,08,08,03,57,14.30
2006,08,08,03,58,14.30
2006,08,08,03,59,14.30
2006,08,08,04,00,14.30
2006,08,08,04,01,14.20
2006,08,08,04,02,14.20
2006,08,08,04,03,14.20
2006,08,08,04,04,14.20
2006,08,08,04,05,14.20
2006,08,08,04,06,14.20
2006,08,08,04,07,14.20
2006,08,08,04,08,14.20
2006,08,08,04,09,14.20
2006,08,08,04,10,14.20
2006,08,08,04,11,14.20
2006,08,08,04,12,14.20
2006,08,08,04,13,14.20
2006,08,08,04,14,14.20
2006,08,08,04,15,14.20
2006,08,08,04,16,14.20
2006,08,08,04,17,14.20
2006,08,08,04,18,14.20
2006,08,08,04,19,14.20
2006,08,08,04,20,14.30
2006,08,08,04,21,14.30
2006,08,08,04,22,14.30
2006,08,08,04,23,14.30
2006,08,08,04,24,14.30
2006,08,08,04,25,14.30
2006,08,08,04,26,14.30
2006,08,08,04,27,14.30
2006,08,08,04,28,14.30
2006,08,08,04,29,14.30
2006,08,08,04,30,14.30
2006,08,08,04,31,14.30
2006,08,08,04,32,14.30
2006,08,08,04,33,14.30
2006,08,08,04,34,14.30
2006,08,08,04,35,14.30
2006,08,08,04,36,14.30
2006,08,08,04,37,14.30
2006,08,08,04,38,14.30
2006,08,08,04,39,14.30
2006,08,08,04,40,14.30
2006,08,08,04,41,14.30
2006,08,08,04,42,14.30
2006,08,08,04,43,14.30
2006,08,08,04,44,14.30
2006,08,08,04,45,14.30
2006,08,08,04,46,14.30
2006,08,08,04,47,14.30
2006,08,08,04,48,14.30
2006,08,08,04,49,14.20
2006,08,08,04,50,14.20
2006,08,08,04,51,14.20
2006,08,08,04,52,14.20
2006,08,08,04,53,14.20
2006,08,08,04,54,14.20
2006,08,08,04,55,14.20
2006,08,08,04,56,14.20
2006,08,08,04,57,14.20
2006,08,08,04,58,14.20
2006,08,08,04,59,14.20
2006,08,08,05,00,14.20
2006,08,08,05,01,14.20
2006,08,08,05,02,14.20
2006,08,08,05,03,14.20
2006,08,08,05,04,14.20
2006,08,08,05,05,14.20
2006,08,08,05,06,14.20
2006,08,08,05,07,14.20
2006,08,08,05,08,14.20
2006,08,08,05,09,14.20
2006,08,08,05,10,14.20
2006,08,08,05,11,14.20
2006,08,08,05,12,14.20
2006,08,08,05,13,14.20
2006,08,08,05,14,14.30
2006,08,08,05,15,14.30
2006,08,08,05,16,14.30
2006,08,08,05,17,14.30
2006,08,08,05,18,14.30
2006,08,08,05,19,14.30
2006,08,08,05,20,14.30
2006,08,08,05,21,14.30
2006,08,08,05,22,14.30
2006,08,08,05,23,14.30
2006,08,08,05,24,14.30
2006,08,08,05,25,14.30
2006,08,08,05,26,14.30
2006,08,08,05,27,14.30
2006,08,08,05,28,14.20
2006,08,08,05,29,14.20
2006,08,08,05,30,14.20
2006,08,08,05,31,14.20
2006,08,08,05,32,14.20
2006,08,08,05,33,14.20
2006,08,08,05,34,14.20
2006,08,08,05,35,14.20
2006,08,08,05,36,14.20
2006,08,08,05,37,14.20
2006,08,08,05,38,14.20
2006,08,08,05,39,14.20
2006,08,08,05,40,14.20
2006,08,08,05,41,14.20
2006,08,08,05,42,14.20
2006,08,08,05,43,14.20
2006,08,08,05,44,14.20
2006,08,08,05,45,14.20
2006,08,08,05,46,14.20
2006,08,08,05,47,14.20
2006,08,08,05,48,14.20
2006,08,08,05,49,14.20
2006,08,08,05,50,14.20
2006,08,08,05,51,14.20
2006,08,08,05,52,14.20
2006,08,08,05,53,14.20
2006,08,08,05,54,14.30
2006,08,08,05,55,14.30
2006,08,08,05,56,14.30
2006,08,08,05,57,14.30
2006,08,08,05,58,14.30
2006,08,08,05,59,14.30
2006,08,08,06,00,14.30
2006,08,08,06,01,14.30
2006,08,08,06,02,14.30
2006,08,08,06,03,14.30
2006,08,08,06,04,14.30
2006,08,08,06,05,14.30
2006,08,08,06,06,14.30
2006,08,08,06,07,14.30
2006,08,08,06,08,14.30
2006,08,08,06,09,14.30
2006,08,08,06,10,14.30
2006,08,08,06,11,14.30
2006,08,08,06,12,14.30
2006,08,08,06,13,14.30
2006,08,08,06,14,14.30
2006,08,08,06,15,14.30
2006,08,08,06,16,14.30
2006,08,08,06,17,14.40
2006,08,08,06,18,14.40
2006,08,08,06,19,14.40
2006,08,08,06,20,14.40
2006,08,08,06,21,14.40
2006,08,08,06,22,14.40
2006,08,08,06,23,14.40
2006,08,08,06,24,14.40
2006,08,08,06,25,14.50
2006,08,08,06,26,14.50
2006,08,08,06,27,14.50
2006,08,08,06,28,14.50
2006,08,08,06,29,14.60
2006,08,08,06,30,14.60
2006,08,08,06,31,14.60
2006,08,08,06,32,14.70
2006,08,08,06,33,14.70
2006,08,08,06,34,14.70
2006,08,08,06,35,14.70
2006,08,08,06,36,14.80
2006,08,08,06,37,14.80
2006,08,08,06,38,14.80
2006,08,08,06,39,14.80
2006,08,08,06,40,14.80
2006,08,08,06,41,14.80
2006,08,08,06,42,14.80
2006,08,08,06,43,14.80
2006,08,08,06,44,14.80
2006,08,08,06,45,14.80
2006,08,08,06,46,14.80
2006,08,08,06,47,14.90
2006,08,08,06,48,14.90
2006,08,08,06,49,14.90
2006,08,08,06,50,14.90
2006,08,08,06,51,14.90
2006,08,08,06,52,14.90
2006,08,08,06,53,14.90
2006,08,08,06,54,15.00
2006,08,08,06,55,15.00
2006,08,08,06,56,15.00
2006,08,08,06,57,15.00
2006,08,08,06,58,15.10
2006,08,08,06,59,15.10
2006,08,08,07,00,15.20
2006,08,08,07,01,15.20
2006,08,08,07,02,15.20
2006,08,08,07,03,15.30
2006,08,08,07,04,15.30
2006,08,08,07,05,15.30
2006,08,08,07,06,15.30
2006,08,08,07,07,15.40
2006,08,08,07,08,15.50
2006,08,08,07,09,15.50
2006,08,08,07,10,15.50
2006,08,08,07,11,15.60
2006,08,08,07,12,15.60
2006,08,08,07,13,15.70
2006,08,08,07,14,15.80
2006,08,08,07,15,15.80
2006,08,08,07,16,15.80
2006,08,08,07,17,15.90
2006,08,08,07,18,15.90
2006,08,08,07,19,16.00
2006,08,08,07,20,16.10
2006,08,08,07,21,16.10
2006,08,08,07,22,16.10
2006,08,08,07,23,16.20
2006,08,08,07,24,16.20
2006,08,08,07,25,16.30
2006,08,08,07,26,16.30
2006,08,08,07,27,16.40
2006,08,08,07,28,16.40
2006,08,08,07,29,16.40
2006,08,08,07,30,16.40
2006,08,08,07,31,16.40
2006,08,08,07,32,16.40
2006,08,08,07,33,16.50
2006,08,08,07,34,16.60
2006,08,08,07,35,16.60
2006,08,08,07,36,16.60
2006,08,08,07,37,16.60
2006,08,08,07,38,16.60
2006,08,08,07,39,16.60
2006,08,08,07,40,16.60
2006,08,08,07,41,16.60
2006,08,08,07,42,16.60
2006,08,08,07,43,16.60
2006,08,08,07,44,16.60
2006,08,08,07,45,16.60
2006,08,08,07,46,16.60
2006,08,08,07,47,16.60
2006,08,08,07,48,16.60
2006,08,08,07,49,16.50
2006,08,08,07,50,16.40
2006,08,08,07,51,16.40
2006,08,08,07,52,16.40
2006,08,08,07,53,16.40
2006,08,08,07,54,16.40
2006,08,08,07,55,16.40
2006,08,08,07,56,16.40
2006,08,08,07,57,16.40
2006,08,08,07,58,16.40
2006,08,08,07,59,16.40
2006,08,08,08,00,16.40
2006,08,08,08,01,16.40
2006,08,08,08,02,16.40
2006,08,08,08,03,16.40
2006,08,08,08,04,16.40
2006,08,08,08,05,16.40
2006,08,08,08,06,16.40
2006,08,08,08,07,16.40
2006,08,08,08,08,16.40
2006,08,08,08,09,16.40
2006,08,08,08,10,16.40
2006,08,08,08,11,16.40
2006,08,08,08,12,16.40
2006,08,08,08,13,16.40
2006,08,08,08,14,16.30
2006,08,08,08,15,16.20
2006,08,08,08,16,16.20
2006,08,08,08,17,16.10
2006,08,08,08,18,16.00
2006,08,08,08,19,15.90
2006,08,08,08,20,15.80
2006,08,08,08,21,15.60
2006,08,08,08,22,15.50
2006,08,08,08,23,15.50
2006,08,08,08,24,15.30
2006,08,08,08,25,15.20
2006,08,08,08,26,15.10
2006,08,08,08,27,15.00
2006,08,08,08,28,14.90
2006,08,08,08,29,14.90
2006,08,08,08,30,14.80
2006,08,08,08,31,14.80
2006,08,08,08,32,14.80
2006,08,08,08,33,14.80
2006,08,08,08,34,14.70
2006,08,08,08,35,14.70
2006,08,08,08,36,14.70
2006,08,08,08,37,14.70
2006,08,08,08,38,14.70
2006,08,08,08,39,14.70
2006,08,08,08,40,14.70
2006,08,08,08,41,14.60
2006,08,08,08,42,14.60
2006,08,08,08,43,14.50
2006,08,08,08,44,14.50
2006,08,08,08,45,14.50
2006,08,08,08,46,14.50
2006,08,08,08,47,14.50
2006,08,08,08,48,14.50
2006,08,08,08,49,14.50
2006,08,08,08,50,14.50
2006,08,08,08,51,14.50
2006,08,08,08,52,14.50
2006,08,08,08,53,14.50
2006,08,08,08,54,14.60
2006,08,08,08,55,14.60
2006,08,08,08,56,14.60
2006,08,08,08,57,14.60
2006,08,08,08,58,14.60
2006,08,08,08,59,14.60
2006,08,08,09,00,14.70
2006,08,08,09,01,14.70
2006,08,08,09,02,14.70
2006,08,08,09,03,14.70
2006,08,08,09,04,14.70
2006,08,08,09,05,14.70
2006,08,08,09,06,14.70
2006,08,08,09,07,14.80
2006,08,08,09,08,14.80
2006,08,08,09,09,14.80
2006,08,08,09,10,14.80
2006,08,08,09,11,14.80
2006,08,08,09,12,14.80
2006,08,08,09,13,14.80
2006,08,08,09,14,14.80
2006,08,08,09,15,14.80
2006,08,08,09,16,14.80
2006,08,08,09,17,14.90
2006,08,08,09,18,14.80
2006,08,08,09,19,14.90
2006,08,08,09,20,14.90
2006,08,08,09,21,14.90
2006,08,08,09,22,14.80
2006,08,08,09,23,14.80
2006,08,08,09,24,14.80
2006,08,08,09,25,14.80
2006,08,08,09,26,14.80
2006,08,08,09,27,14.80
2006,08,08,09,28,14.80
2006,08,08,09,29,14.70
2006,08,08,09,30,14.70
2006,08,08,09,31,14.60
2006,08,08,09,32,14.60
2006,08,08,09,33,14.60
2006,08,08,09,34,14.50
2006,08,08,09,35,14.50
2006,08,08,09,36,14.40
2006,08,08,09,37,14.30
2006,08,08,09,38,14.00
2006,08,08,09,39,13.80
2006,08,08,09,40,13.70
2006,08,08,09,41,13.50
2006,08,08,09,42,13.50
2006,08,08,09,43,13.40
2006,08,08,09,44,13.30
2006,08,08,09,45,13.20
2006,08,08,09,46,13.20
2006,08,08,09,47,13.10
2006,08,08,09,48,13.10
2006,08,08,09,49,13.10
2006,08,08,09,50,13.00
2006,08,08,09,51,13.00
2006,08,08,09,52,12.90
2006,08,08,09,53,12.90
2006,08,08,09,54,12.90
2006,08,08,09,55,12.90
2006,08,08,09,56,12.90
2006,08,08,09,57,12.90
2006,08,08,09,58,12.90
2006,08,08,09,59,12.90
2006,08,08,10,00,12.90
2006,08,08,10,01,12.90
2006,08,08,10,02,12.90
2006,08,08,10,03,12.90
2006,08,08,10,04,12.90
2006,08,08,10,05,12.90
2006,08,08,10,06,12.90
2006,08,08,10,07,13.00
2006,08,08,10,08,13.00
2006,08,08,10,09,13.00
2006,08,08,10,10,13.00
2006,08,08,10,11,13.00
2006,08,08,10,12,13.00
2006,08,08,10,13,13.00
2006,08,08,10,14,13.00
2006,08,08,10,15,13.00
2006,08,08,10,16,13.00
2006,08,08,10,17,13.00
2006,08,08,10,18,13.00
2006,08,08,10,19,12.90
2006,08,08,10,20,12.90
2006,08,08,10,21,12.90
2006,08,08,10,22,12.90
2006,08,08,10,23,12.90
2006,08,08,10,24,12.80
2006,08,08,10,25,12.80
2006,08,08,10,26,12.80
2006,08,08,10,27,12.80
2006,08,08,10,28,12.80
2006,08,08,10,29,12.80
2006,08,08,10,30,12.80
2006,08,08,10,31,12.80
2006,08,08,10,32,12.80
2006,08,08,10,33,12.80
2006,08,08,10,34,12.70
2006,08,08,10,35,12.70
2006,08,08,10,36,12.70
2006,08,08,10,37,12.70
2006,08,08,10,38,12.70
2006,08,08,10,39,12.70
2006,08,08,10,40,12.80
2006,08,08,10,41,12.80
2006,08,08,10,42,12.80
2006,08,08,10,43,12.80
2006,08,08,10,44,12.80
2006,08,08,10,45,12.80
2006,08,08,10,46,12.80
2006,08,08,10,47,12.80
2006,08,08,10,48,12.80
2006,08,08,10,49,12.80
2006,08,08,10,50,12.70
2006,08,08,10,51,12.70
2006,08,08,10,52,12.60
2006,08,08,10,53,12.60
2006,08,08,10,54,12.60
2006,08,08,10,55,12.60
2006,08,08,10,56,12.60
2006,08,08,10,57,12.60
2006,08,08,10,58,12.60
2006,08,08,10,59,12.70
2006,08,08,11,00,12.70
2006,08,08,11,01,12.70
2006,08,08,11,02,12.70
2006,08,08,11,03,12.70
2006,08,08,11,04,12.80
2006,08,08,11,05,12.80
2006,08,08,11,06,12.80
2006,08,08,11,07,12.80
2006,08,08,11,08,12.80
2006,08,08,11,09,12.90
2006,08,08,11,10,12.90
2006,08,08,11,11,13.00
2006,08,08,11,12,13.00
2006,08,08,11,13,13.00
2006,08,08,11,14,13.00
2006,08,08,11,15,12.90
2006,08,08,11,16,12.80
2006,08,08,11,17,12.80
2006,08,08,11,18,12.90
2006,08,08,11,19,12.90
2006,08,08,11,20,12.90
2006,08,08,11,21,13.00
2006,08,08,11,22,13.00
2006,08,08,11,23,13.10
2006,08,08,11,24,13.10
2006,08,08,11,25,13.10
2006,08,08,11,26,13.20
2006,08,08,11,27,13.30
2006,08,08,11,28,13.30
2006,08,08,11,29,13.30
2006,08,08,11,30,13.30
2006,08,08,11,31,13.30
2006,08,08,11,32,13.30
2006,08,08,11,33,13.30
2006,08,08,11,34,13.30
2006,08,08,11,35,13.30
2006,08,08,11,36,13.30
2006,08,08,11,37,13.30
2006,08,08,11,38,13.40
2006,08,08,11,39,13.40
2006,08,08,11,40,13.40
2006,08,08,11,41,13.40
2006,08,08,11,42,13.40
2006,08,08,11,43,13.40
2006,08,08,11,44,13.40
2006,08,08,11,45,13.40
2006,08,08,11,46,13.40
2006,08,08,11,47,13.30
2006,08,08,11,48,13.30
2006,08,08,11,49,13.30
2006,08,08,11,50,13.30
2006,08,08,11,51,13.30
2006,08,08,11,52,13.30
2006,08,08,11,53,13.30
2006,08,08,11,54,13.30
2006,08,08,11,55,13.30
2006,08,08,11,56,13.30
2006,08,08,11,57,13.30
2006,08,08,11,58,13.30
2006,08,08,11,59,13.30
2006,08,08,12,00,13.30
2006,08,08,12,01,13.30
2006,08,08,12,02,13.30
2006,08,08,12,03,13.30
2006,08,08,12,04,13.30
2006,08,08,12,05,13.40
2006,08,08,12,06,13.40
2006,08,08,12,07,13.40
2006,08,08,12,08,13.40
2006,08,08,12,09,13.40
2006,08,08,12,10,13.30
2006,08,08,12,11,13.40
2006,08,08,12,12,13.40
2006,08,08,12,13,13.40
2006,08,08,12,14,13.40
2006,08,08,12,15,13.40
2006,08,08,12,16,13.50
2006,08,08,12,17,13.50
2006,08,08,12,18,13.50
2006,08,08,12,19,13.50
2006,08,08,12,20,13.50
2006,08,08,12,21,13.50
2006,08,08,12,22,13.50
2006,08,08,12,23,13.60
2006,08,08,12,24,13.60
2006,08,08,12,25,13.60
2006,08,08,12,26,13.60
2006,08,08,12,27,13.70
2006,08,08,12,28,13.70
2006,08,08,12,29,13.70
2006,08,08,12,30,13.70
2006,08,08,12,31,13.80
2006,08,08,12,32,13.80
2006,08,08,12,33,13.80
2006,08,08,12,34,13.80
2006,08,08,12,35,13.80
2006,08,08,12,36,13.90
2006,08,08,12,37,13.90
2006,08,08,12,38,13.90
2006,08,08,12,39,14.00
2006,08,08,12,40,14.00
2006,08,08,12,41,14.10
2006,08,08,12,42,14.10
2006,08,08,12,43,14.10
2006,08,08,12,44,14.10
2006,08,08,12,45,14.20
2006,08,08,12,46,14.20
2006,08,08,12,47,14.20
2006,08,08,12,48,14.20
2006,08,08,12,49,14.20
2006,08,08,12,50,14.20
2006,08,08,12,51,14.20
2006,08,08,12,52,14.20
2006,08,08,12,53,14.20
2006,08,08,12,54,14.20
2006,08,08,12,55,14.30
2006,08,08,12,56,14.30
2006,08,08,12,57,14.40
2006,08,08,12,58,14.40
2006,08,08,12,59,14.50
2006,08,08,13,00,14.50
2006,08,08,13,01,14.60
2006,08,08,13,02,14.70
2006,08,08,13,03,14.80
2006,08,08,13,04,14.80
2006,08,08,13,05,14.90
2006,08,08,13,06,14.90
2006,08,08,13,07,14.90
2006,08,08,13,08,14.90
2006,08,08,13,09,14.90
2006,08,08,13,10,14.90
2006,08,08,13,11,15.00
2006,08,08,13,12,15.00
2006,08,08,13,13,15.00
2006,08,08,13,14,15.10
2006,08,08,13,15,15.10
2006,08,08,13,16,15.10
2006,08,08,13,17,15.10
2006,08,08,13,18,15.20
2006,08,08,13,19,15.20
2006,08,08,13,20,15.30
2006,08,08,13,21,15.30
2006,08,08,13,22,15.40
2006,08,08,13,23,15.50
2006,08,08,13,24,15.60
2006,08,08,13,25,15.70
2006,08,08,13,26,15.80
2006,08,08,13,27,15.80
2006,08,08,13,28,15.80
2006,08,08,13,29,15.80
2006,08,08,13,30,15.70
2006,08,08,13,31,15.70
2006,08,08,13,32,15.60
2006,08,08,13,33,15.60
2006,08,08,13,34,15.60
2006,08,08,13,35,15.60
2006,08,08,13,36,15.60
2006,08,08,13,37,15.60
2006,08,08,13,38,15.50
2006,08,08,13,39,15.50
2006,08,08,13,40,15.60
2006,08,08,13,41,15.60
2006,08,08,13,42,15.60
2006,08,08,13,43,15.70
2006,08,08,13,44,15.70
2006,08,08,13,45,15.70
2006,08,08,13,46,15.80
2006,08,08,13,47,15.80
2006,08,08,13,48,15.80
2006,08,08,13,49,15.80
2006,08,08,13,50,15.80
2006,08,08,13,51,15.80
2006,08,08,13,52,15.80
2006,08,08,13,53,15.80
2006,08,08,13,54,15.80
2006,08,08,13,55,15.80
2006,08,08,13,56,15.80
2006,08,08,13,57,15.80
2006,08,08,13,58,15.80
2006,08,08,13,59,15.80
2006,08,08,14,00,15.80
2006,08,08,14,01,15.80
2006,08,08,14,02,15.80
2006,08,08,14,03,15.90
2006,08,08,14,04,15.90
2006,08,08,14,05,15.80
2006,08,08,14,06,15.80
2006,08,08,14,07,15.80
2006,08,08,14,08,15.80
2006,08,08,14,09,15.80
2006,08,08,14,10,15.80
2006,08,08,14,11,15.80
2006,08,08,14,12,15.80
2006,08,08,14,13,15.80
2006,08,08,14,14,15.80
2006,08,08,14,15,15.80
2006,08,08,14,16,15.90
2006,08,08,14,17,15.90
2006,08,08,14,18,15.90
2006,08,08,14,19,16.00
2006,08,08,14,20,16.10
2006,08,08,14,21,16.10
2006,08,08,14,22,16.10
2006,08,08,14,23,16.10
2006,08,08,14,24,16.10
2006,08,08,14,25,16.10
2006,08,08,14,26,16.10
2006,08,08,14,27,15.90
2006,08,08,14,28,15.80
2006,08,08,14,29,15.80
2006,08,08,14,30,15.80
2006,08,08,14,31,15.70
2006,08,08,14,32,15.70
2006,08,08,14,33,15.60
2006,08,08,14,34,15.60
2006,08,08,14,35,15.60
2006,08,08,14,36,15.60
2006,08,08,14,37,15.60
2006,08,08,14,38,15.60
2006,08,08,14,39,15.60
2006,08,08,14,40,15.50
2006,08,08,14,41,15.50
2006,08,08,14,42,15.50
2006,08,08,14,43,15.40
2006,08,08,14,44,15.30
2006,08,08,14,45,15.30
2006,08,08,14,46,15.20
2006,08,08,14,47,15.20
2006,08,08,14,48,15.10
2006,08,08,14,49,15.10
2006,08,08,14,50,15.00
2006,08,08,14,51,15.00
2006,08,08,14,52,15.00
2006,08,08,14,53,14.90
2006,08,08,14,54,14.90
2006,08,08,14,55,14.80
2006,08,08,14,56,14.80
2006,08,08,14,57,14.80
2006,08,08,14,58,14.80
2006,08,08,14,59,14.80
2006,08,08,15,00,14.80
2006,08,08,15,01,14.80
2006,08,08,15,02,14.80
2006,08,08,15,03,14.80
2006,08,08,15,04,14.80
2006,08,08,15,05,14.80
2006,08,08,15,06,14.80
2006,08,08,15,07,14.80
2006,08,08,15,08,14.80
2006,08,08,15,09,14.80
2006,08,08,15,10,14.80
2006,08,08,15,11,14.80
2006,08,08,15,12,14.80
2006,08,08,15,13,14.80
2006,08,08,15,14,14.70
2006,08,08,15,15,14.70
2006,08,08,15,16,14.60
2006,08,08,15,17,14.60
2006,08,08,15,18,14.50
2006,08,08,15,19,14.50
2006,08,08,15,20,14.40
2006,08,08,15,21,14.40
2006,08,08,15,22,14.30
2006,08,08,15,23,14.20
2006,08,08,15,24,14.20
2006,08,08,15,25,14.20
2006,08,08,15,26,14.20
2006,08,08,15,27,14.20
2006,08,08,15,28,14.20
2006,08,08,15,29,14.20
2006,08,08,15,30,14.20
2006,08,08,15,31,14.20
2006,08,08,15,32,14.20
2006,08,08,15,33,14.20
2006,08,08,15,34,14.20
2006,08,08,15,35,14.20
2006,08,08,15,36,14.20
2006,08,08,15,37,14.20
2006,08,08,15,38,14.20
2006,08,08,15,39,14.20
2006,08,08,15,40,14.20
2006,08,08,15,41,14.30
2006,08,08,15,42,14.30
2006,08,08,15,43,14.30
2006,08,08,15,44,14.30
2006,08,08,15,45,14.40
2006,08,08,15,46,14.40
2006,08,08,15,47,14.40
2006,08,08,15,48,14.40
2006,08,08,15,49,14.40
2006,08,08,15,50,14.50
2006,08,08,15,51,14.50
2006,08,08,15,52,14.60
2006,08,08,15,53,14.60
2006,08,08,15,54,14.70
2006,08,08,15,55,14.80
2006,08,08,15,56,14.80
2006,08,08,15,57,14.90
2006,08,08,15,58,15.00
2006,08,08,15,59,15.00
2006,08,08,16,00,15.10
2006,08,08,16,01,15.20
2006,08,08,16,02,15.30
2006,08,08,16,03,15.30
2006,08,08,16,04,15.40
2006,08,08,16,05,15.50
2006,08,08,16,06,15.60
2006,08,08,16,07,15.70
2006,08,08,16,08,15.80
2006,08,08,16,09,15.80
2006,08,08,16,10,15.90
2006,08,08,16,11,16.00
2006,08,08,16,12,16.10
2006,08,08,16,13,16.10
2006,08,08,16,14,16.20
2006,08,08,16,15,16.30
2006,08,08,16,16,16.40
2006,08,08,16,17,16.40
2006,08,08,16,18,16.50
2006,08,08,16,19,16.60
2006,08,08,16,20,16.70
2006,08,08,16,21,16.70
2006,08,08,16,22,16.70
2006,08,08,16,23,16.80
2006,08,08,16,24,16.90
2006,08,08,16,25,16.90
2006,08,08,16,26,17.00
2006,08,08,16,27,17.00
2006,08,08,16,28,17.10
2006,08,08,16,29,17.10
2006,08,08,16,30,17.10
2006,08,08,16,31,17.10
2006,08,08,16,32,17.20
2006,08,08,16,33,17.20
2006,08,08,16,34,17.20
2006,08,08,16,35,17.20
2006,08,08,16,36,17.30
2006,08,08,16,37,17.30
2006,08,08,16,38,17.30
2006,08,08,16,39,17.30
2006,08,08,16,40,17.30
2006,08,08,16,41,17.30
2006,08,08,16,42,17.30
2006,08,08,16,43,17.30
2006,08,08,16,44,17.40
2006,08,08,16,45,17.40
2006,08,08,16,46,17.40
2006,08,08,16,47,17.50
2006,08,08,16,48,17.50
2006,08,08,16,49,17.50
2006,08,08,16,50,17.60
2006,08,08,16,51,17.60
2006,08,08,16,52,17.60
2006,08,08,16,53,17.60
2006,08,08,16,54,17.70
2006,08,08,16,55,17.70
2006,08,08,16,56,17.70
2006,08,08,16,57,17.70
2006,08,08,16,58,17.70
2006,08,08,16,59,17.70
2006,08,08,17,00,17.70
2006,08,08,17,01,17.70
2006,08,08,17,02,17.70
2006,08,08,17,03,17.70
2006,08,08,17,04,17.70
2006,08,08,17,05,17.70
2006,08,08,17,06,17.70
2006,08,08,17,07,17.60
2006,08,08,17,08,17.60
2006,08,08,17,09,17.60
2006,08,08,17,10,17.50
2006,08,08,17,11,17.50
2006,08,08,17,12,17.40
2006,08,08,17,13,17.40
2006,08,08,17,14,17.40
2006,08,08,17,15,17.40
2006,08,08,17,16,17.40
2006,08,08,17,17,17.30
2006,08,08,17,18,17.30
2006,08,08,17,19,17.30
2006,08,08,17,20,17.30
2006,08,08,17,21,17.30
2006,08,08,17,22,17.30
2006,08,08,17,23,17.30
2006,08,08,17,24,17.20
2006,08,08,17,25,17.20
2006,08,08,17,26,17.20
2006,08,08,17,27,17.10
2006,08,08,17,28,17.10
2006,08,08,17,29,17.10
2006,08,08,17,30,17.10
2006,08,08,17,31,17.10
2006,08,08,17,32,17.10
2006,08,08,17,33,17.10
2006,08,08,17,34,17.00
2006,08,08,17,35,17.00
2006,08,08,17,36,16.90
2006,08,08,17,37,16.90
2006,08,08,17,38,16.90
2006,08,08,17,39,16.90
2006,08,08,17,40,16.90
2006,08,08,17,41,16.90
2006,08,08,17,42,16.90
2006,08,08,17,43,16.90
2006,08,08,17,44,16.80
2006,08,08,17,45,16.80
2006,08,08,17,46,16.80
2006,08,08,17,47,16.80
2006,08,08,17,48,16.80
2006,08,08,17,49,16.80
2006,08,08,17,50,16.80
2006,08,08,17,51,16.80
2006,08,08,17,52,16.80
2006,08,08,17,53,16.80
2006,08,08,17,54,16.70
2006,08,08,17,55,16.70
2006,08,08,17,56,16.70
2006,08,08,17,57,16.70
2006,08,08,17,58,16.70
2006,08,08,17,59,16.70
2006,08,08,18,00,16.70
2006,08,08,18,01,16.70
2006,08,08,18,02,16.70
2006,08,08,18,03,16.70
2006,08,08,18,04,16.70
2006,08,08,18,05,16.70
2006,08,08,18,06,16.70
2006,08,08,18,07,16.70
2006,08,08,18,08,16.70